• In Portugal
  • List of Countries
  • For 7 days
  • Water Temperature
  • Satellite Maps
  • Weather Map
  • Weather Widgets
  • user-avatar
    Login

    Hourly Weather Nadżaf

    Today, 22 January, Monday

    Time Temperature Precipitation Wind Pressure Humidity
    00:00 +11°C° 0 mm 1 mps 756 mmHg 49%
    01:00 +11°C° 0 mm 1 mps 756 mmHg 49%
    02:00 +10°C° 0 mm 2 mps 756 mmHg 48%
    03:00 +10°C° 0 mm 2 mps 755 mmHg 48%
    04:00 +10°C° 0 mm 2 mps 755 mmHg 48%
    05:00 +9°C° 0 mm 2 mps 755 mmHg 48%
    06:00 +9°C° 0 mm 2 mps 755 mmHg 47%
    07:00 +10°C° 0 mm 3 mps 755 mmHg 44%
    08:00 +11°C° 0 mm 3 mps 754 mmHg 41%
    09:00 +12°C° 0 mm 4 mps 754 mmHg 38%
    10:00 +13°C° 0 mm 4 mps 754 mmHg 33%
    11:00 +15°C° 0 mm 5 mps 753 mmHg 28%
    12:00 +17°C° 0 mm 6 mps 752 mmHg 23%
    13:00 +19°C° 0 mm 6 mps 752 mmHg 21%
    14:00 +20°C° 0 mm 6 mps 751 mmHg 19%
    15:00 +21°C° 0 mm 6 mps 750 mmHg 17%
    16:00 +20°C° 0 mm 6 mps 750 mmHg 18%
    17:00 +19°C° 0 mm 5 mps 750 mmHg 18%
    18:00 +17°C° 0 mm 5 mps 750 mmHg 19%
    19:00 +17°C° 0 mm 5 mps 750 mmHg 19%
    20:00 +16°C° 0 mm 6 mps 750 mmHg 20%
    21:00 +16°C° 0 mm 6 mps 750 mmHg 20%
    22:00 +16°C° 0 mm 5 mps 750 mmHg 20%
    23:00 +15°C° 0 mm 5 mps 749 mmHg 21%

    Tomorrow, 23 January, Tuesday

    Time Temperature Precipitation Wind Pressure Humidity
    00:00 +15°C° 0 mm 5 mps 749 mmHg 21%
    01:00 +15°C° 0 mm 4 mps 749 mmHg 22%
    02:00 +14°C° 0 mm 4 mps 749 mmHg 22%
    03:00 +14°C° 0 mm 4 mps 749 mmHg 23%
    04:00 +14°C° 0 mm 4 mps 748 mmHg 23%
    05:00 +14°C° 0 mm 4 mps 748 mmHg 23%
    06:00 +13°C° 0 mm 4 mps 748 mmHg 23%
    07:00 +14°C° 0 mm 5 mps 748 mmHg 22%
    08:00 +14°C° 0 mm 5 mps 748 mmHg 22%
    09:00 +15°C° 0 mm 6 mps 748 mmHg 21%
    10:00 +16°C° 0 mm 6 mps 748 mmHg 19%
    11:00 +19°C° 0 mm 5 mps 748 mmHg 17%
    12:00 +20°C° 0 mm 5 mps 748 mmHg 15%
    13:00 +21°C° 0 mm 4 mps 747 mmHg 15%
    14:00 +22°C° 0 mm 4 mps 747 mmHg 15%
    15:00 +24°C° 0 mm 3 mps 747 mmHg 15%
    16:00 +22°C° 0 mm 3 mps 747 mmHg 17%
    17:00 +20°C° 0 mm 3 mps 747 mmHg 18%
    18:00 +19°C° 0 mm 3 mps 747 mmHg 20%
    19:00 +19°C° 0 mm 3 mps 748 mmHg 20%
    20:00 +18°C° 0 mm 3 mps 749 mmHg 21%
    21:00 +17°C° 0 mm 3 mps 749 mmHg 22%
    22:00 +17°C° 0 mm 4 mps 749 mmHg 26%
    23:00 +17°C° 0 mm 4 mps 750 mmHg 29%

    Day after tomorrow, 24 January, Wednesday

    Time Temperature Precipitation Wind Pressure Humidity
    00:00 +15°C° 0 mm 5 mps 750 mmHg 33%
    01:00 +15°C° 0 mm 5 mps 750 mmHg 38%
    02:00 +14°C° 0 mm 4 mps 751 mmHg 42%
    03:00 +14°C° 0 mm 4 mps 751 mmHg 47%
    04:00 +13°C° 0 mm 4 mps 751 mmHg 49%
    05:00 +13°C° 0 mm 3 mps 751 mmHg 51%
    06:00 +13°C° 0 mm 3 mps 752 mmHg 54%
    07:00 +13°C° 0 mm 3 mps 752 mmHg 52%
    08:00 +14°C° 0 mm 3 mps 753 mmHg 50%
    09:00 +16°C° 0 mm 3 mps 753 mmHg 48%
    10:00 +17°C° 0 mm 2 mps 753 mmHg 45%
    11:00 +18°C° 0 mm 2 mps 753 mmHg 41%
    12:00 +19°C° 0 mm 2 mps 753 mmHg 38%
    13:00 +20°C° 0 mm 2 mps 753 mmHg 36%
    14:00 +20°C° 0 mm 2 mps 752 mmHg 34%
    15:00 +20°C° 0 mm 2 mps 752 mmHg 32%
    16:00 +20°C° 0 mm 1 mps 752 mmHg 35%
    17:00 +19°C° 0 mm 1 mps 752 mmHg 37%
    18:00 +16°C° 0 mm 0 mps 752 mmHg 39%
    19:00 +16°C° 0 mm 0 mps 752 mmHg 41%
    20:00 +15°C° 0 mm 0 mps 752 mmHg 42%
    21:00 +16°C° 0 mm 1 mps 753 mmHg 44%
    22:00 +16°C° 0 mm 1 mps 753 mmHg 44%
    23:00 +15°C° 0 mm 1 mps 752 mmHg 45%

    25 January, Thursday

    Time Temperature Precipitation Wind Pressure Humidity
    00:00 +15°C° 0 mm 2 mps 752 mmHg 45%
    01:00 +15°C° 0 mm 2 mps 752 mmHg 46%
    02:00 +15°C° 0 mm 2 mps 752 mmHg 46%
    03:00 +14°C° 0 mm 3 mps 751 mmHg 47%
    04:00 +13°C° 0 mm 3 mps 751 mmHg 48%
    05:00 +13°C° 0 mm 3 mps 751 mmHg 49%
    06:00 +13°C° 0 mm 3 mps 751 mmHg 50%
    07:00 +13°C° 0 mm 4 mps 752 mmHg 48%
    08:00 +14°C° 0 mm 4 mps 752 mmHg 46%
    09:00 +15°C° 0 mm 5 mps 752 mmHg 43%
    10:00 +17°C° 0 mm 5 mps 751 mmHg 38%
    11:00 +19°C° 0 mm 6 mps 751 mmHg 33%
    12:00 +21°C° 0 mm 6 mps 750 mmHg 28%
    13:00 +22°C° 0 mm 7 mps 750 mmHg 26%
    14:00 +23°C° 0 mm 7 mps 749 mmHg 24%
    15:00 +23°C° 0 mm 8 mps 748 mmHg 22%
    16:00 +22°C° 0 mm 7 mps 748 mmHg 23%
    17:00 +21°C° 0 mm 6 mps 748 mmHg 24%
    18:00 +20°C° 0 mm 5 mps 747 mmHg 25%
    19:00 +19°C° 0 mm 5 mps 748 mmHg 26%
    20:00 +19°C° 0 mm 5 mps 748 mmHg 27%
    21:00 +17°C° 0 mm 5 mps 748 mmHg 28%
    22:00 +17°C° 0 mm 5 mps 748 mmHg 28%
    23:00 +16°C° 0 mm 5 mps 748 mmHg 28%

    26 January, Friday

    Time Temperature Precipitation Wind Pressure Humidity
    00:00 +16°C° 0 mm 5 mps 748 mmHg 28%
    01:00 +15°C° 0 mm 5 mps 748 mmHg 32%
    02:00 +15°C° 0 mm 4 mps 749 mmHg 36%
    03:00 +14°C° 0 mm 4 mps 749 mmHg 40%
    04:00 +13°C° 0 mm 4 mps 749 mmHg 43%
    05:00 +13°C° 0 mm 3 mps 750 mmHg 46%
    06:00 +12°C° 0 mm 3 mps 750 mmHg 50%
    07:00 +13°C° 0 mm 3 mps 750 mmHg 48%
    08:00 +14°C° 0 mm 3 mps 751 mmHg 46%
    09:00 +14°C° 0 mm 3 mps 752 mmHg 43%
    10:00 +17°C° 0 mm 3 mps 751 mmHg 38%
    11:00 +18°C° 0 mm 4 mps 751 mmHg 32%
    12:00 +19°C° 0 mm 4 mps 751 mmHg 27%
    13:00 +20°C° 0 mm 4 mps 751 mmHg 26%
    14:00 +20°C° 0 mm 4 mps 750 mmHg 24%
    15:00 +21°C° 0 mm 4 mps 750 mmHg 23%
    16:00 +20°C° 0 mm 4 mps 750 mmHg 25%
    17:00 +19°C° 0 mm 3 mps 750 mmHg 26%
    18:00 +18°C° 0 mm 2 mps 750 mmHg 28%
    19:00 +17°C° 0 mm 2 mps 751 mmHg 30%
    20:00 +17°C° 0 mm 2 mps 751 mmHg 31%
    21:00 +16°C° 0 mm 2 mps 751 mmHg 32%
    22:00 +16°C° 0 mm 3 mps 751 mmHg 33%
    23:00 +14°C° 0 mm 3 mps 751 mmHg 34%

    27 January, Saturday

    Time Temperature Precipitation Wind Pressure Humidity
    00:00 +14°C° 0 mm 4 mps 751 mmHg 35%
    01:00 +14°C° 0 mm 4 mps 751 mmHg 36%
    02:00 +13°C° 0 mm 4 mps 751 mmHg 37%
    03:00 +13°C° 0 mm 4 mps 751 mmHg 38%
    04:00 +12°C° 0 mm 4 mps 751 mmHg 41%
    05:00 +12°C° 0 mm 4 mps 751 mmHg 45%
    06:00 +12°C° 0 mm 4 mps 751 mmHg 48%
    07:00 +12°C° 0 mm 4 mps 752 mmHg 47%
    08:00 +13°C° 0 mm 5 mps 752 mmHg 46%
    09:00 +14°C° 0 mm 6 mps 753 mmHg 45%
    10:00 +14°C° 0 mm 6 mps 752 mmHg 42%
    11:00 +15°C° 0 mm 6 mps 752 mmHg 38%
    12:00 +16°C° 0 mm 6 mps 752 mmHg 34%
    13:00 +16°C° 0 mm 7 mps 752 mmHg 32%
    14:00 +16°C° 0 mm 7 mps 752 mmHg 30%
    15:00 +16°C° 0 mm 7 mps 751 mmHg 28%
    16:00 +15°C° 0 mm 6 mps 751 mmHg 29%
    17:00 +14°C° 0 mm 5 mps 751 mmHg 30%
    18:00 +14°C° 0 mm 4 mps 752 mmHg 31%
    19:00 +13°C° 0 mm 4 mps 752 mmHg 33%
    20:00 +13°C° 0 mm 4 mps 752 mmHg 34%
    21:00 +13°C° 0 mm 4 mps 752 mmHg 35%
    22:00 +12°C° 0 mm 4 mps 752 mmHg 38%
    23:00 +12°C° 0 mm 5 mps 752 mmHg 41%
    Show more